Radioactive Concentration measured by Seawater Radiation Monitor near Fukushima Daiichi Nuclear Power Station
Date,Time,Cs137(Bq/L),Cs134(Bq/L),Total β(Bq/L)
2017/07/16,00:00,0.78,0.027,ND
2017/07/16,00:10,0.78,0.025,ND
2017/07/16,00:20,0.81,0.027,ND
2017/07/16,00:30,0.81,0.035,ND
2017/07/16,00:40,0.83,0.038,ND
2017/07/16,00:50,0.78,0.034,ND
2017/07/16,01:00,0.78,0.032,ND
2017/07/16,01:10,0.77,0.032,ND
2017/07/16,01:20,0.78,0.031,ND
2017/07/16,01:30,0.76,0.033,ND
2017/07/16,01:40,0.77,0.026,ND
2017/07/16,01:50,0.77,0.025,ND
2017/07/16,02:00,0.77,0.025,ND
2017/07/16,02:10,0.79,0.026,ND
2017/07/16,02:20,0.77,0.036,ND
2017/07/16,02:30,0.84,ND,ND
2017/07/16,02:40,0.80,0.027,ND
2017/07/16,02:50,0.85,ND,ND
2017/07/16,03:00,0.83,0.025,ND
2017/07/16,03:10,0.84,0.026,ND
2017/07/16,03:20,0.96,ND,ND
2017/07/16,03:30,0.90,0.037,ND
2017/07/16,03:40,0.91,0.038,ND
2017/07/16,03:50,0.90,0.041,ND
2017/07/16,04:00,0.84,0.040,ND
2017/07/16,04:10,0.82,0.042,ND
2017/07/16,04:20,0.81,0.036,ND
2017/07/16,04:30,0.83,0.030,ND
2017/07/16,04:40,0.89,ND,ND
2017/07/16,04:50,0.82,0.037,ND
2017/07/16,05:00,0.84,0.030,ND
2017/07/16,05:10,0.91,ND,ND
2017/07/16,05:20,0.87,0.036,ND
2017/07/16,05:30,0.92,0.038,ND
2017/07/16,05:40,0.91,0.039,ND
2017/07/16,05:50,0.95,0.041,ND
2017/07/16,06:00,0.94,0.048,ND
2017/07/16,06:10,0.91,0.054,ND
2017/07/16,06:20,0.94,0.043,ND
2017/07/16,06:30,0.92,0.048,ND
2017/07/16,06:40,0.93,0.045,ND
2017/07/16,06:50,0.90,0.040,ND
2017/07/16,07:00,0.92,0.034,ND
2017/07/16,07:10,0.91,0.037,ND
2017/07/16,07:20,0.89,0.037,ND
2017/07/16,07:30,0.88,0.037,ND
2017/07/16,07:40,0.87,0.036,ND
2017/07/16,07:50,0.88,0.034,ND
2017/07/16,08:00,0.86,0.045,ND
2017/07/16,08:10,0.87,0.033,ND
2017/07/16,08:20,0.86,0.035,ND
2017/07/16,08:30,0.85,0.040,ND
2017/07/16,08:40,0.84,0.045,ND
2017/07/16,08:50,0.79,0.046,ND
2017/07/16,09:00,0.82,0.039,ND
2017/07/16,09:10,0.82,0.043,ND
2017/07/16,09:20,0.82,0.043,ND
2017/07/16,09:30,0.80,0.049,ND
2017/07/16,09:40,0.79,0.044,ND
2017/07/16,09:50,0.82,0.032,ND
2017/07/16,10:00,0.84,0.032,ND
2017/07/16,10:10,0.84,0.030,ND
2017/07/16,10:20,0.82,0.033,ND
2017/07/16,10:30,0.87,ND,ND
2017/07/16,10:40,0.89,ND,ND
2017/07/16,10:50,0.85,ND,ND
2017/07/16,11:00,0.84,ND,ND
2017/07/16,11:10,0.83,ND,ND
2017/07/16,11:20,0.84,ND,ND
2017/07/16,11:30,0.84,ND,ND
2017/07/16,11:40,0.82,ND,ND
2017/07/16,11:50,0.80,0.034,ND
2017/07/16,12:00,0.77,0.028,ND
2017/07/16,12:10,0.77,0.028,ND
2017/07/16,12:20,0.74,0.031,ND
2017/07/16,12:30,0.73,0.036,ND
2017/07/16,12:40,0.74,0.028,ND
2017/07/16,12:50,0.76,ND,ND
2017/07/16,13:00,0.76,ND,ND
2017/07/16,13:10,0.77,ND,ND
2017/07/16,13:20,0.79,ND,ND
2017/07/16,13:30,0.73,ND,ND
2017/07/16,13:40,0.78,ND,ND
2017/07/16,13:50,0.78,ND,ND
2017/07/16,14:00,0.72,ND,ND
2017/07/16,14:10,0.76,ND,ND
2017/07/16,14:20,0.73,ND,ND
2017/07/16,14:30,0.68,0.029,ND
2017/07/16,14:40,0.67,0.035,ND
2017/07/16,14:50,0.68,0.037,ND
2017/07/16,15:00,0.70,0.036,ND
2017/07/16,15:10,0.72,0.036,ND
2017/07/16,15:20,0.71,0.029,ND
2017/07/16,15:30,0.70,0.029,ND
2017/07/16,15:40,0.71,0.027,ND
2017/07/16,15:50,0.78,ND,ND
2017/07/16,16:00,0.73,0.026,ND
2017/07/16,16:10,0.68,0.030,ND
2017/07/16,16:20,0.68,0.033,ND
2017/07/16,16:30,0.73,0.031,ND
2017/07/16,16:40,0.69,0.026,ND
2017/07/16,16:50,0.68,0.029,ND
2017/07/16,17:00,0.73,0.033,ND
2017/07/16,17:10,0.72,0.032,ND
2017/07/16,17:20,0.70,0.040,ND
2017/07/16,17:30,0.69,0.035,ND
2017/07/16,17:40,0.71,0.033,ND
2017/07/16,17:50,0.73,0.033,ND
2017/07/16,18:00,0.74,0.030,ND
2017/07/16,18:10,0.76,0.025,ND
2017/07/16,18:20,0.79,ND,ND
2017/07/16,18:30,0.78,0.030,ND
2017/07/16,18:40,0.76,0.038,ND
2017/07/16,18:50,0.70,0.033,ND
2017/07/16,19:00,0.71,0.033,ND
2017/07/16,19:10,0.67,0.044,ND
2017/07/16,19:20,0.68,0.049,ND
2017/07/16,19:30,0.68,0.051,ND
2017/07/16,19:40,0.71,0.042,ND
2017/07/16,19:50,0.71,0.046,ND
2017/07/16,20:00,0.69,0.051,ND
2017/07/16,20:10,0.77,0.044,ND
2017/07/16,20:20,0.79,0.032,ND
2017/07/16,20:30,0.79,0.043,ND
2017/07/16,20:40,0.81,0.044,ND
2017/07/16,20:50,0.83,0.051,ND
2017/07/16,21:00,0.88,0.052,ND
2017/07/16,21:10,0.89,0.053,ND
2017/07/16,21:20,0.86,0.064,ND
2017/07/16,21:30,0.92,0.054,ND
2017/07/16,21:40,0.87,0.053,ND
2017/07/16,21:50,0.90,0.060,ND
2017/07/16,22:00,0.85,0.052,ND
2017/07/16,22:10,0.86,0.056,ND
2017/07/16,22:20,0.85,0.051,ND
2017/07/16,22:30,0.85,0.056,ND
2017/07/16,22:40,0.85,0.055,ND
2017/07/16,22:50,0.88,0.037,ND
2017/07/16,23:00,0.87,0.042,ND
2017/07/16,23:10,0.87,0.035,ND
2017/07/16,23:20,0.93,0.040,ND
2017/07/16,23:30,0.93,0.053,ND
2017/07/16,23:40,0.93,0.069,ND
2017/07/16,23:50,0.92,0.084,ND
